Fort Yukon, AK

7:15 AM AKST on February 25, 2018 (GMT -0900)
Fort Yukon

Weather History for PFYU - January, 2012

Change the Weather History Date:

Wednesday, January 4, 2012

  Actual Average Record
Temperature  
Mean Temperature -20 °F -  
Max Temperature -14 °F -11 °F 26 °F (2017)
Min Temperature -25 °F -23 °F -63 °F (1997)
Degree Days  
Heating Degree Days 86    
Moisture  
Dew Point -28 °F    
Average Humidity 59    
Maximum Humidity 64    
Minimum Humidity 53    
Precipitation  
Precipitation 0.00 in - - ()
Sea Level Pressure  
Sea Level Pressure 29.47 in    
Wind  
Wind Speed 0 mph (SSW)    
Max Wind Speed 4 mph    
Max Gust Speed -    
Visibility 10 miles    
Events      
Averages and records for this station are not official NWS values.
T = Trace of Precipitation, MM = Missing Value Source: NWS Daily Summary

Daily Weather History Graph

Daily Weather History Graph

Search for Another Location

Airport or City:

Trip Planner

Search our weather history database for the weather conditions in past years. The results will help you decide how hot, cold, wet, or windy it might be!

Date:

Astronomy

Jan. 04, 2012 Rise Set
Actual Time 11:17 AM AKST 2:14 PM AKST
Civil Twilight 9:37 AM AKST 3:54 PM AKST
Nautical Twilight 8:20 AM AKST 5:12 PM AKST
Astronomical Twilight 7:14 AM AKST 6:17 PM AKST
Moon 11:12 AM AKST (1/4) 6:41 AM AKST (1/4)
Length of Visible Light 6h 16m
Length of Day
2h 57m
Waxing Gibbous, 81% of the Moon is Illuminated
Jan 4
Waxing Gibbous
Jan 8
Full
Jan 16
Last Quarter
Jan 22
New
Jan 30
First Quarter

Hourly Weather History & Observations

Time (AKST) Temp. Windchill Dew Point Humidity Pressure Visibility Wind Dir Wind Speed Gust Speed Precip Events Conditions
12:16 AM -23.8 °F - - N/A% 29.63 in 10.0 mi Calm Calm - N/A   Overcast
12:36 AM -23.8 °F - - N/A% 29.62 in 10.0 mi Calm Calm - N/A   Overcast
12:56 AM -23.8 °F - - N/A% 29.61 in 10.0 mi Calm Calm - N/A   Overcast
1:16 AM -23.8 °F -35.0 °F - N/A% 29.61 in 10.0 mi WSW 3.5 mph - N/A   Overcast
1:36 AM -23.8 °F - - N/A% 29.60 in 10.0 mi Calm Calm - N/A   Overcast
1:56 AM -22.0 °F - - N/A% 29.60 in 10.0 mi Calm Calm - N/A   Overcast
2:16 AM -22.0 °F - - N/A% 29.59 in 10.0 mi Calm Calm - N/A   Overcast
2:36 AM -20.2 °F - - N/A% 29.59 in 10.0 mi Calm Calm - N/A   Overcast
2:56 AM -20.2 °F - - N/A% 29.58 in 10.0 mi Calm Calm - N/A   Overcast
3:16 AM -20.2 °F - - N/A% 29.57 in 10.0 mi Calm Calm - N/A   Overcast
3:36 AM -20.2 °F - - N/A% 29.56 in 10.0 mi Calm Calm - N/A   Overcast
3:56 AM -20.2 °F - - N/A% 29.55 in 10.0 mi Calm Calm - N/A   Scattered Clouds
4:16 AM -20.2 °F - - N/A% 29.54 in 10.0 mi Calm Calm - N/A   Clear
4:36 AM -22.0 °F - - N/A% 29.54 in 8.0 mi Calm Calm - N/A   Clear
4:56 AM -23.8 °F -35.0 °F - N/A% 29.53 in 10.0 mi South 3.5 mph - N/A   Clear
5:16 AM -23.8 °F - - N/A% 29.53 in 10.0 mi Calm Calm - N/A   Clear
5:36 AM -25.6 °F - - N/A% 29.52 in 10.0 mi Calm Calm - N/A   Clear
5:56 AM -25.6 °F - - N/A% 29.51 in 10.0 mi Calm Calm - N/A   Clear
6:16 AM -25.6 °F - - N/A% 29.50 in 10.0 mi Calm Calm - N/A   Clear
6:36 AM -25.6 °F - - N/A% 29.50 in 10.0 mi Calm Calm - N/A   Clear
6:56 AM -25.6 °F - - N/A% 29.49 in 10.0 mi Calm Calm - N/A   Clear
7:16 AM -25.6 °F - - N/A% 29.49 in 10.0 mi Calm Calm - N/A   Clear
7:36 AM -25.6 °F - - N/A% 29.48 in 10.0 mi Calm Calm - N/A   Clear
7:56 AM -25.6 °F - - N/A% 29.48 in 10.0 mi Calm Calm - N/A   Clear
8:16 AM -25.6 °F - - N/A% 29.47 in 10.0 mi Calm Calm - N/A   Clear
8:36 AM -25.6 °F - - N/A% 29.47 in 10.0 mi Calm Calm - N/A   Clear
8:56 AM -25.6 °F - - N/A% 29.46 in 9.0 mi Calm Calm - N/A   Clear
9:16 AM -25.6 °F - - N/A% 29.45 in 9.0 mi Calm Calm - N/A   Clear
9:36 AM -25.6 °F - - N/A% 29.45 in 9.0 mi Calm Calm - N/A   Mostly Cloudy
9:56 AM -25.6 °F - - N/A% 29.44 in 10.0 mi Calm Calm - N/A   Mostly Cloudy
10:16 AM -25.6 °F - - N/A% 29.44 in 10.0 mi Calm Calm - N/A   Mostly Cloudy
10:36 AM -25.6 °F - - N/A% 29.43 in 10.0 mi Calm Calm - N/A   Overcast
10:56 AM -23.8 °F - - N/A% 29.42 in 10.0 mi Calm Calm - N/A   Overcast
11:16 AM -23.8 °F - - N/A% 29.42 in 10.0 mi Calm Calm - N/A   Overcast
11:36 AM -23.8 °F - - N/A% 29.41 in 10.0 mi Calm Calm - N/A   Overcast
11:56 AM -22.0 °F - - N/A% 29.41 in 10.0 mi Calm Calm - N/A   Overcast
12:16 PM -20.2 °F - -29.2 °F 63% 29.41 in 10.0 mi Calm Calm - N/A   Overcast
12:36 PM -20.2 °F - - N/A% 29.40 in 10.0 mi Calm Calm - N/A   Overcast
12:56 PM -18.4 °F - -29.2 °F 58% 29.41 in 10.0 mi Calm Calm - N/A   Overcast
1:16 PM -18.4 °F - -29.2 °F 58% 29.41 in 10.0 mi Calm Calm - N/A   Overcast
1:36 PM -18.4 °F - - N/A% 29.40 in 10.0 mi Calm Calm - N/A   Overcast
1:56 PM -18.4 °F - -27.4 °F 63% 29.39 in 10.0 mi Calm Calm - N/A   Overcast
2:16 PM -16.6 °F - -27.4 °F 58% 29.39 in 10.0 mi Calm Calm - N/A   Overcast
2:36 PM -16.6 °F - -29.2 °F 53% 29.39 in 9.0 mi Calm Calm - N/A   Overcast
2:56 PM -16.6 °F - -25.6 °F 64% 29.38 in 5.0 mi Calm Calm - N/A   Overcast
3:16 PM -16.6 °F - -27.4 °F 58% 29.38 in 5.0 mi Calm Calm - N/A   Overcast
3:36 PM -16.6 °F - -27.4 °F 58% 29.39 in 5.0 mi Calm Calm - N/A   Mostly Cloudy
3:56 PM -16.6 °F - -29.2 °F 53% 29.38 in 9.0 mi Calm Calm - N/A   Scattered Clouds
4:16 PM -18.4 °F - -29.2 °F 58% 29.38 in 9.0 mi Calm Calm - N/A   Scattered Clouds
4:36 PM -18.4 °F - -29.2 °F 58% 29.37 in 9.0 mi Calm Calm - N/A   Scattered Clouds
4:56 PM -18.4 °F - - N/A% 29.37 in 10.0 mi Calm Calm - N/A   Scattered Clouds
5:16 PM -18.4 °F - -27.4 °F 63% 29.37 in 10.0 mi Calm Calm - N/A   Scattered Clouds
5:36 PM -16.6 °F - -25.6 °F 64% 29.37 in 10.0 mi Calm Calm - N/A   Scattered Clouds
5:56 PM -16.6 °F - -25.6 °F 64% 29.37 in 6.0 mi Calm Calm - N/A   Mostly Cloudy
6:16 PM -14.8 °F -24.8 °F -27.4 °F 53% 29.37 in 9.0 mi South 3.5 mph - N/A   Mostly Cloudy
6:36 PM -14.8 °F - -23.8 °F 64% 29.37 in 9.0 mi Calm Calm - N/A   Overcast
6:56 PM -14.8 °F - -25.6 °F 58% 29.37 in 10.0 mi Calm Calm - N/A   Overcast
7:16 PM -14.8 °F - -25.6 °F 58% 29.38 in 10.0 mi Calm Calm - N/A   Overcast
7:36 PM -14.8 °F -24.8 °F -23.8 °F 64% 29.39 in 10.0 mi SSW 3.5 mph - N/A   Overcast
7:56 PM -13.0 °F -25.1 °F -25.6 °F 53% 29.39 in 2.0 mi SW 4.6 mph - N/A   Overcast
8:16 PM -14.8 °F -27.2 °F -23.8 °F 64% 29.40 in 5.0 mi SSW 4.6 mph - N/A   Overcast
8:36 PM -14.8 °F - -25.6 °F 58% 29.40 in 3.0 mi Calm Calm - N/A   Overcast
8:56 PM -13.0 °F -22.7 °F -23.8 °F 59% 29.41 in 3.0 mi West 3.5 mph - N/A   Overcast
9:16 PM - - - N/A% 29.41 in 5.0 mi Calm Calm - N/A   Overcast
9:36 PM -11.2 °F - -23.8 °F 54% 29.42 in 2.0 mi Calm Calm - N/A   Overcast
9:56 PM -13.0 °F -22.7 °F -23.8 °F 59% 29.43 in 2.0 mi WSW 3.5 mph - N/A   Overcast
10:16 PM -11.2 °F -23.0 °F -23.8 °F 54% 29.44 in 2.5 mi WSW 4.6 mph - N/A   Overcast
10:36 PM -13.0 °F -22.7 °F -23.8 °F 59% 29.45 in 1.5 mi SW 3.5 mph - N/A   Overcast
10:56 PM - - - N/A% 29.44 in 1.2 mi SW 3.5 mph - N/A   Overcast
11:16 PM -11.2 °F -20.6 °F -23.8 °F 54% 29.46 in 1.5 mi SSW 3.5 mph - N/A   Overcast
11:36 PM -11.2 °F -20.6 °F -23.8 °F 54% 29.46 in 3.0 mi North 3.5 mph - N/A   Overcast
11:56 PM -11.2 °F -20.6 °F -23.8 °F 54% 29.47 in 10.0 mi North 3.5 mph - N/A   Overcast